Location: Unspecified
(38.0989°N, 0.6729°W)
Time: 18:48:39
(UTC+01:00)

Tiangong - Visible Passes

Search period start: 25 January 2022 00:00
Search period end: 04 February 2022 00:00
Orbit: 382 x 386 km, 41.5° (Epoch: 25 January)

Date Brightness Start Highest point End Pass type
(mag) Time Alt. Az. Time Alt. Az. Time Alt. Az.
25 Jan 2.8 19:43:45 10° SSW 19:45:59 20° SSE 19:45:59 20° SSE visible
26 Jan 3.5 18:45:30 10° SSE 18:46:40 12° SE 18:47:51 10° ESE visible
26 Jan 3.0 20:19:56 10° WSW 20:21:35 27° SW 20:21:35 27° SW visible
27 Jan 2.0 19:20:27 10° SW 19:23:23 36° SSE 19:24:52 22° E visible
27 Jan 4.8 20:57:02 10° W 20:57:05 10° W 20:57:05 10° W visible
28 Jan 1.0 19:57:11 10° WSW 20:00:17 80° NW 20:00:17 80° NW visible
29 Jan 1.2 18:57:25 10° WSW 19:00:34 64° SSE 19:03:26 12° ENE visible
29 Jan 3.7 20:34:25 10° W 20:35:38 20° WNW 20:35:38 20° WNW visible
30 Jan 1.4 19:34:27 10° W 19:37:34 57° NNW 19:38:44 33° NE visible
31 Jan 2.4 20:11:40 10° WNW 20:14:00 35° NW 20:14:00 35° NW visible
01 Feb 1.7 19:11:40 10° W 19:14:45 46° N 19:17:01 16° ENE visible
01 Feb 4.3 20:48:43 10° WNW 20:49:14 14° WNW 20:49:14 14° WNW visible
02 Feb 1.6 19:48:47 10° WNW 19:51:51 44° N 19:52:15 41° NNE visible
03 Feb 2.9 20:25:42 10° WNW 20:27:30 30° WNW 20:27:30 30° WNW visible
